TimeEST,TemperatureF,Dew PointF,Humidity,Sea Level PressureIn,VisibilityMPH,Wind Direction,Wind SpeedMPH,Gust SpeedMPH,PrecipitationIn,Events,Conditions,WindDirDegrees,DateUTC
12:03 AM,48.2,42.8,82,29.67,10.0,SSE,6.9,-,0.00,Rain,Light Rain,150,2012-12-17 05:03:00
12:54 AM,48.0,42.1,80,29.68,10.0,SSE,8.1,-,0.00,,Overcast,150,2012-12-17 05:54:00
1:54 AM,48.0,45.0,89,29.69,4.0,South,8.1,-,0.03,Rain,Rain,190,2012-12-17 06:54:00
2:23 AM,48.2,46.4,93,29.68,8.0,SSE,6.9,-,0.01,,Overcast,160,2012-12-17 07:23:00
2:54 AM,48.0,45.0,89,29.69,10.0,South,8.1,-,0.01,,Overcast,180,2012-12-17 07:54:00
3:08 AM,48.2,44.6,87,29.68,10.0,South,8.1,-,N/A,,Mostly Cloudy,170,2012-12-17 08:08:00
3:54 AM,48.0,45.0,89,29.69,10.0,South,8.1,-,N/A,,Mostly Cloudy,190,2012-12-17 08:54:00
4:54 AM,48.0,45.0,89,29.68,10.0,SSW,8.1,-,N/A,,Mostly Cloudy,200,2012-12-17 09:54:00
5:54 AM,48.0,44.1,86,29.69,10.0,SSW,8.1,-,N/A,,Overcast,210,2012-12-17 10:54:00
6:54 AM,48.0,43.0,83,29.70,10.0,SW,10.4,-,N/A,,Mostly Cloudy,230,2012-12-17 11:54:00
7:54 AM,46.9,42.1,83,29.72,10.0,WSW,10.4,-,N/A,,Overcast,240,2012-12-17 12:54:00
8:20 AM,46.4,42.8,87,29.71,8.0,SW,11.5,-,N/A,,Overcast,230,2012-12-17 13:20:00
8:54 AM,46.0,41.0,83,29.73,9.0,SW,12.7,-,N/A,,Overcast,230,2012-12-17 13:54:00
9:54 AM,45.0,39.9,82,29.75,10.0,SW,11.5,20.7,N/A,,Overcast,230,2012-12-17 14:54:00
10:54 AM,46.0,39.0,76,29.75,10.0,SW,10.4,-,N/A,,Overcast,230,2012-12-17 15:54:00
11:54 AM,45.0,37.9,76,29.73,10.0,WSW,12.7,-,N/A,,Overcast,240,2012-12-17 16:54:00
12:54 PM,45.0,37.9,76,29.70,10.0,WSW,8.1,-,N/A,,Overcast,240,2012-12-17 17:54:00
1:54 PM,45.0,37.9,76,29.69,10.0,SW,8.1,-,N/A,,Overcast,220,2012-12-17 18:54:00
2:54 PM,45.0,37.9,76,29.67,10.0,West,4.6,-,N/A,,Overcast,260,2012-12-17 19:54:00
3:54 PM,45.0,37.9,76,29.68,10.0,Calm,Calm,-,N/A,,Overcast,0,2012-12-17 20:54:00
4:54 PM,45.0,37.0,74,29.68,10.0,Calm,Calm,-,N/A,,Overcast,0,2012-12-17 21:54:00
7:54 PM,45.0,39.0,80,29.63,10.0,NNE,6.9,-,0.00,Rain,Light Rain,30,2012-12-18 00:54:00
8:54 PM,44.1,39.9,85,29.61,6.0,NE,6.9,-,0.00,Rain,Light Rain,40,2012-12-18 01:54:00
9:20 PM,42.8,39.2,87,29.58,3.0,NE,9.2,-,0.05,Rain,Light Rain,40,2012-12-18 02:20:00
9:54 PM,43.0,41.0,93,29.58,3.0,NE,8.1,-,0.13,Rain,Rain,40,2012-12-18 02:54:00
10:20 PM,42.8,41.0,93,29.56,5.0,NNE,6.9,-,0.04,Rain,Light Rain,20,2012-12-18 03:20:00
10:54 PM,43.0,39.9,89,29.56,6.0,NNE,9.2,-,0.04,Rain,Light Rain,30,2012-12-18 03:54:00
11:43 PM,42.8,41.0,93,29.54,6.0,NNE,5.8,-,0.01,Rain,Light Rain,20,2012-12-18 04:43:00
11:54 PM,43.0,41.0,93,29.55,5.0,NNE,6.9,-,0.01,Rain,Light Rain,30,2012-12-18 04:54:00